Showing default

TIANLIAN-2 04, 63361

Orbit data source: Space-Track

TIANLIAN-2 04, 63361 is a payload satellite owned by CAST (CN) in GEO that was launched on Wed, 26 Mar 2025 UTC via a CHANG ZHENG 3B launch vehicle from the Xichang Space Center, China (XSC). Payload-class satellites include a variety of spacecraft equipped with specific instruments for various scientific and technological missions. These include communications satellites like Starlink; space stations such as the ISS; scientific satellites like the Hubble; Earth observation satellites from companies like Planet Labs, Umbra, and HawkEye 360; GPS; miniature CubeSats for education and research; and military/defense satellites.

Not visible in the next 10 days
Identifier
63361, 2025-062A
Orbit
GEO
Country
Flag of CNCN / PRC
Related business
Manufacturer
CAST
Mission
Operational Civil Communications
Bus & Motor
DFH-4, FY-25
Mass
~5,000 kg wet, ~2,000 kg dry
Launch date (UTC)
2025-03-26 (1 year ago)
Launch vehicle
CHANG ZHENG 3B
Launch site
Xichang Space Center, China (XSC)
Object type
Payload
Rocket body
Debris
Shape & HBR
Box + 2 Pan + 1 Dish, 22.5 m
Radar Cross Section
40.604 m², Large (>1 m²)

Expand to show TLE details & history
Last TLE update: 8 hours ago

TLE from 8 hours ago
0 TIANLIAN-2 04
1 63361U 25062A   26073.58432219 -.00000141  00000-0  00000-0 0  9993
2 63361   4.6194 275.7323 0034384  10.0103 176.8297  1.00271248  3650
Epoch: 2026-03-14T14:01Z
TLE epoch observation values (Epoch: 2026-03-14T14:01:25.437Z)
Latitude
-0.56849°
Longitude
80.04309°
Altitude
35,930.707 km
Speed
3.064 km/s
True Right ascension
06h 50m 24s
True Declination
0° 34' 05"
Sunlit
Object was in daylight at epoch
Visualization orbit readout
Latitude
Unknown
Longitude
Unknown
Altitude
Unknown
Speed
Unknown
Apparent Right ascension
Unknown
Apparent Declination
Unknown
Sunlit
N/A
Visualization observer readout
Local Sidereal Time
02:26:38
Azimuth
Unknown
Elevation
Unknown
Doppler factor
Unknown
Orbital elements
Apogee altitude
35,932.789 km
Perigee altitude
35,642.822 km
Semi-major axis
42,165.943 km
Eccentricity
0.00344
Inclination
4.6194°
RAAN
275.7323°
Arg. of periapsis
10.0103°
True anomaly
176.8514°
Mean anomaly
176.8297°
Eccentric anomaly
176.84056°
Mean motion
0.25067 °/min
Orbital period
1,436.16 mins
BSTAR
0
Loading maneuver chart data...
Computing Atmospheric mass density...
Loading historical data...
Loading historical data...
Loading historical data...
Loading historical data...
Loading historical data...
Loading historical data...
Loading historical data...
Other satellites on launch #62 in the year 2025 (2025-03-26 UTC)

Documentation

Showing up to 5 results
|